User: anonymous   Login
Location: Unspecified
(0.0000°N, 0.0000°E)
Time: 18:50:31
(UTC+00:00)
Language:

Vanguard 2 Rocket - Orbit

View from above orbital plane
View from above orbital plane
View from above satellite
View from above satellite

Ground track
Ground track

The orbit data is extracted from the following two-line orbital elements,

1    12U 59001B   19107.95040545 +.00000159 +00000-0 +92496-4 0  9997
2    12 032.9025 043.1358 1664281 353.6781 004.4992 11.44238226231110
Epoch (UTC): 17 April 2019 22:48:35
Eccentricity: 0.1664281
inclination: 32.9025°
perigee height: 556 km
apogee height: 3325 km
right ascension of ascending node: 43.1358°
argument of perigee: 353.6781°
revolutions per day: 11.44238226
mean anomaly at epoch: 4.4992°
orbit number at epoch: 23111

The dashed part of the orbit path shows where the satellite is in the earth's shadow,  

DLR